Home   Weather   Elizabeth   Past weeks
Flag for USA

Past Weather in Elizabeth, New Jersey, USA — Yesterday and Last 2 Weeks

Now
55 °F

Light rain. Fog.


Feels Like: 55 °F
Forecast: 59 / 44 °F
Wind: 3 mph from Northeast

Location: Newark International Airport

Current Time: Oct 20, 2019 at 6:12:03 pm

Latest Report: Oct 20, 2019 at 5:25 pm


Visibility: 4 mi

Pressure: 29.99 "Hg

Humidity: 96%

Dew Point: 54 °F

Location of ElizabethLocation

Past Weather in Elizabeth — Graph

°F

Elizabeth Temperature Yesterday

Maximum temperature yesterday: 62 °F (at 2:51 pm)
Minimum temperature yesterday: 41 °F (at 6:51 am)
Average temperature yesterday: 52 °F

High & Low Weather Summary for the Past Weeks

 TemperatureHumidityPressure
High80 °F (Oct 7, 2:51 pm)97% (Oct 16, 9:30 pm)30.39 "Hg (Oct 16, 9:30 pm)
Low41 °F (Oct 19, 6:51 am)24% (Oct 10, 7:51 pm)29.15 "Hg (Oct 16, 10:02 pm)
Average59 °F65%30.03 "Hg
* Reported Oct 5 4:51 pm — Oct 20 4:51 pm, Elizabeth. Weather by CustomWeather, © 2019

Note: Actual official high and low records may vary slightly from our data, if they occured in-between our weather recording intervals... More about our weather records

Advertising

Elizabeth Weather History for the Previous 24 Hours

Scroll right to see more
 ConditionsComfort  
Time TempWeatherWind HumidityBarometerVisibility
4:51 pm
Sun, Oct 20
55 °FLight rain. Fog.5 mph96%29.98 "Hg2 mi
4:24 pm55 °FLight rain. Fog.3 mph96%29.99 "Hg2 mi
3:51 pm55 °FLight rain. Fog.No wind96%30.00 "Hg2 mi
3:04 pm54 °FHeavy rain. Fog.6 mph97%30.01 "Hg2 mi
1:51 pm56 °FLight rain. Fog.6 mph87%30.03 "Hg5 mi
12:51 pm57 °FLight rain. Mostly cloudy.5 mph78%30.04 "Hg8 mi
12:23 pm58 °FLight rain. Mostly cloudy.3 mph72%30.05 "Hg9 mi
11:51 am57 °FCloudy.5 mph72%30.04 "Hg10 mi
10:51 am54 °FMostly cloudy.5 mph77%30.04 "Hg10 mi
9:51 am51 °FCloudy.5 mph83%30.05 "Hg10 mi
9:09 am50 °FCloudy.3 mph83%30.07 "Hg10 mi
8:51 am49 °FMostly cloudy.3 mph84%30.06 "Hg10 mi
8:25 am48 °FPartly sunny.3 mph86%30.06 "Hg10 mi
7:51 am46 °FBroken clouds.3 mph86%30.03 "Hg10 mi
6:51 am46 °FPassing clouds.3 mph83%30.02 "Hg10 mi
5:51 am45 °FPassing clouds.3 mph82%30.02 "Hg10 mi
4:51 am45 °FPassing clouds.3 mph80%30.02 "Hg10 mi
3:51 am49 °FPassing clouds.No wind74%30.02 "Hg10 mi
2:51 am50 °FPassing clouds.No wind68%30.03 "Hg10 mi
1:51 am48 °FPartly cloudy.5 mph74%30.05 "Hg10 mi
12:51 am50 °FPassing clouds.3 mph68%30.04 "Hg10 mi
11:51 pm
Sat, Oct 19
54 °FPassing clouds.3 mph59%30.03 "Hg10 mi
10:51 pm53 °FPassing clouds.3 mph59%30.04 "Hg10 mi
9:51 pm52 °FPassing clouds.7 mph59%30.04 "Hg10 mi
8:51 pm55 °FPassing clouds.5 mph57%30.03 "Hg10 mi
7:51 pm56 °FPassing clouds.7 mph62%30.02 "Hg10 mi
6:51 pm58 °FPassing clouds.7 mph56%30.01 "Hg10 mi
Weather by CustomWeather, © 2019

See weather overview